This is the latest recevied weather packets stored in our database for station/object KC8BSD. If no packets are shown the sender has not sent any weather packets the latest 1 day(s).
| Time | Temp. | Humidity | Pressure | Rain* | Wind** | Luminosity | Snow |
|---|---|---|---|---|---|---|---|
| 1777998092 | 11.11° C | 81% | 1008.8 hPa | 0 mm | 0.45 m/s, 202° | 144 W/m² | - |
| 1777997789 | 11.11° C | 81% | 1008.8 hPa | 0 mm | 0.45 m/s, 242° | 223 W/m² | - |
| 1777997486 | 11.11° C | 81% | 1008.6 hPa | 1.27 mm | 0.89 m/s, 55° | 156 W/m² | - |
| 1777997184 | 11.11° C | 80% | 1008.6 hPa | 1.27 mm | 0.45 m/s, 298° | 135 W/m² | - |
| 1777996881 | 11.11° C | 80% | 1008.5 hPa | 0 mm | 0 m/s | 85 W/m² | - |
| 1777996577 | 11.11° C | 79% | 1008.7 hPa | 0 mm | 0.45 m/s, 250° | 116 W/m² | - |
| 1777996274 | 11.11° C | 77% | 1008.5 hPa | 0 mm | 1.34 m/s, 35° | 119 W/m² | - |
| 1777995970 | 11.67° C | 79% | 1008.7 hPa | 0 mm | 0.45 m/s, 39° | 113 W/m² | - |
| 1777995666 | 11.67° C | 78% | 1008.7 hPa | 0 mm | 0 m/s | 92 W/m² | - |
| 1777995364 | 11.67° C | 77% | 1008.4 hPa | 0 mm | 0.45 m/s, 230° | 125 W/m² | - |
| 1777995061 | 11.67° C | 75% | 1008.3 hPa | 0 mm | 0.45 m/s, 279° | 114 W/m² | - |
| 1777994757 | 12.22° C | 73% | 1008.4 hPa | 0 mm | 0.45 m/s, 315° | 124 W/m² | - |
| 1777994453 | 12.22° C | 72% | 1008.3 hPa | 0 mm | 0 m/s | 107 W/m² | - |
| 1777994148 | 12.22° C | 68% | 1008.3 hPa | 0 mm | 0.89 m/s, 49° | 122 W/m² | - |
| 1777993846 | 12.22° C | 67% | 1008.1 hPa | 0 mm | 0.45 m/s, 58° | 102 W/m² | - |
| 1777993542 | 12.78° C | 66% | 1007.9 hPa | 0 mm | 1.79 m/s, 32° | 72 W/m² | - |
| 1777993238 | 12.78° C | 65% | 1007.8 hPa | 0 mm | 1.34 m/s, 52° | 101 W/m² | - |
| 1777992935 | 12.78° C | 67% | 1007.7 hPa | 0 mm | 0.45 m/s, 39° | 115 W/m² | - |
| 1777992633 | 12.78° C | 67% | 1007.7 hPa | 0 mm | 0.89 m/s, 346° | 112 W/m² | - |
| 1777992331 | 12.78° C | 66% | 1007.5 hPa | 0 mm | 0.89 m/s, 344° | 112 W/m² | - |
| 1777992028 | 12.78° C | 65% | 1007.7 hPa | 0 mm | 0.45 m/s, 59° | 116 W/m² | - |
| 1777991725 | 12.78° C | 64% | 1007.4 hPa | 0 mm | 0.89 m/s, 265° | 80 W/m² | - |
| 1777991422 | 12.78° C | 64% | 1007.4 hPa | 0 mm | 0.89 m/s, 351° | 115 W/m² | - |
| 1777991120 | 13.33° C | 65% | 1007.1 hPa | 0 mm | 0 m/s | 133 W/m² | - |
| 1777990817 | 13.33° C | 63% | 1007.4 hPa | 0 mm | 0.45 m/s, 262° | 124 W/m² | - |
* Rain latest hour (hover to see other rain measurements)
** Current wind speed in m/s (hover to see current wind gust speed)